Flag for Germany Weather past 2 weeks in Fehmarn (Puttgarden), Schleswig-Holstein, Germany

Now
75 °F

Partly sunny.


Feels Like: 78 °F
Forecast: 68 / 76 °F
Wind: 7 mph from Southeast

Location: Westermarkelsdorf

Current Time: Aug 2, 2014 at 11:23:18 AM

Latest Report: Aug 2, 2014 at 11:00 AM


Visibility: 6 mi

Pressure: 29.86 "Hg

Humidity: 52%

Dew point: 56 °F

Location of Fehmarn (Puttgarden)Location

Historic Weather in Fehmarn (Puttgarden) — Graph

°F

Fehmarn (Puttgarden) temperature yesterday

Maximum temperature yesterday: 80 °F (at 4:00 PM)
Minimum temperature yesterday: 63 °F (at 1:00 AM)
Average temperature yesterday: 72 °F

Past Weeks' High & Low Weather Summary

 TemperatureHumidityPressure
High80 °F (Aug 1, 4:00 PM)95% (Jul 26, 7:00 AM)30.23 "Hg (Jul 26, 7:00 AM)
Low61 °F (Jul 19, 5:00 AM)36% (Aug 1, 3:00 PM)29.75 "Hg (Jul 30, 7:00 AM)
Average70 °F75%29.97 "Hg
* Reported Jul 18 10:00 AM — Aug 2 10:00 AM, Fehmarn (Puttgarden), Weather by CustomWeather, © 2014

Note: Actual official high and low records may vary slightly from our data, if they occured in-between our weather recording intervals... More about our weather records

Advertising

Fehmarn (Puttgarden) weather history for previous 24 hours

 ConditionsComfort  
Time TempWeatherWind HumidityBarometerVisibility
10:00 AM
Aug 2
78 °FPartly sunny.6 mph49%29.86 "Hg4 mi
9:00 AM76 °FOvercast.5 mph55%29.87 "Hg9 mi
8:00 AM70 °FOvercast.3 mph75%29.87 "Hg7 mi
7:00 AM66 °FOvercast.3 mph86%29.88 "Hg6 mi
6:00 AM64 °FOvercast.2 mph89%29.88 "Hg6 mi
5:00 AM64 °FOvercast.5 mph87%29.88 "Hg6 mi
4:00 AM64 °FPassing clouds.5 mph84%29.88 "Hg7 mi
3:00 AM65 °FClear.5 mph84%29.89 "Hg7 mi
2:00 AM66 °FClear.5 mph81%29.90 "Hg7 mi
1:00 AM67 °FClear.5 mph79%29.90 "Hg8 mi
12:00 AM65 °FClear.5 mph83%29.90 "Hg7 mi
10:00 PM
Aug 1
68 °FClear.3 mph80%29.90 "Hg7 mi
9:00 PM71 °FSunny.5 mph73%29.89 "Hg7 mi
8:00 PM73 °FPassing clouds.6 mph65%29.88 "Hg7 mi
7:00 PM74 °FPassing clouds.7 mph57%29.89 "Hg8 mi
6:00 PM76 °FPassing clouds.7 mph53%29.90 "Hg7 mi
5:00 PM79 °FPassing clouds.7 mph49%29.90 "Hg5 mi
4:00 PM80 °FPassing clouds.7 mph37%29.90 "Hg6 mi
3:00 PM79 °FSunny.7 mph36%29.91 "Hg6 mi
2:00 PM79 °FPassing clouds.6 mph39%29.92 "Hg6 mi
1:00 PM77 °FPassing clouds.7 mph38%29.93 "Hg10 mi
12:00 PM77 °FPassing clouds.6 mph42%29.93 "Hg7 mi
11:00 AM75 °FSunny.6 mph49%29.93 "Hg8 mi
Weather by CustomWeather, © 2014

See weather overviewHow to use our weather pages